| time (UTC) | temp F | wind direction | speed MPH | gust MPH | rain 1hr in | rain 24hr in | rain mn in | humidity % | barometer mb |
| 20260504223247 | 71 | 91 | 5.0 | 13.0 | 0.00 | 0.00 | 0.00 | 42 | 1007.1 |
| 20260504222524 | 71 | 48 | 5.0 | 17.0 | 0.00 | 0.00 | 0.00 | 42 | 1007.0 |
| 20260504222025 | 71 | 109 | 5.0 | 17.0 | 0.00 | 0.00 | 0.00 | 42 | 1007.1 |
| 20260504221801 | 71 | 94 | 4.0 | 12.0 | 0.00 | 0.00 | 0.00 | 42 | 1007.1 |
| 20260504221026 | 71 | 155 | 4.0 | 15.0 | 0.00 | 0.00 | 0.00 | 42 | 1007.1 |
| 20260504220527 | 71 | 103 | 4.0 | 15.0 | 0.00 | 0.00 | 0.00 | 41 | 1007.1 |
| 20260504220254 | 71 | 157 | 5.0 | 14.0 | 0.00 | 0.00 | 0.00 | 41 | 1007.1 |
| 20260504215526 | 72 | 115 | 7.0 | 18.0 | 0.00 | 0.00 | 0.00 | 41 | 1007.0 |
| 20260504215024 | 72 | 77 | 5.0 | 18.0 | 0.00 | 0.00 | 0.00 | 40 | 1006.9 |
| 20260504214743 | 72 | 90 | 4.0 | 9.0 | 0.00 | 0.00 | 0.00 | 40 | 1007.1 |
| 20260504214504 | 71 | 119 | 4.0 | 10.0 | 0.00 | 0.00 | 0.00 | 41 | 1007.1 |
| 20260504213527 | 71 | 169 | 5.0 | 13.0 | 0.00 | 0.00 | 0.00 | 40 | 1007.0 |
| 20260504213025 | 72 | 117 | 5.0 | 14.0 | 0.00 | 0.00 | 0.00 | 38 | 1007.1 |
| 20260504212525 | 72 | 124 | 5.0 | 14.0 | 0.00 | 0.00 | 0.00 | 38 | 1007.1 |
| 20260504212018 | 72 | 186 | 4.0 | 12.0 | 0.00 | 0.00 | 0.00 | 39 | 1007.0 |
| 20260504211731 | 72 | 83 | 4.0 | 11.0 | 0.00 | 0.00 | 0.00 | 39 | 1007.0 |
| 20260504211009 | 71 | 168 | 4.0 | 12.0 | 0.00 | 0.00 | 0.00 | 40 | 1007.1 |
| 20260504210459 | 70 | 78 | 4.0 | 12.0 | 0.00 | 0.00 | 0.00 | 39 | 1007.0 |
| 20260504210218 | 71 | 79 | 3.0 | 11.0 | 0.00 | 0.00 | 0.00 | 40 | 1007.1 |
| 20260504205449 | 71 | 122 | 3.0 | 11.0 | 0.00 | 0.00 | 0.00 | 39 | 1007.1 |
| 20260504205206 | 72 | 157 | 4.0 | 11.0 | 0.00 | 0.00 | 0.00 | 39 | 1007.2 |
| 20260504204657 | 73 | 117 | 4.0 | 14.0 | 0.00 | 0.00 | 0.00 | 37 | 1007.2 |
| 20260504203937 | 73 | 98 | 4.0 | 14.0 | 0.00 | 0.00 | 0.00 | 35 | 1007.1 |
| 20260504203437 | 73 | 116 | 4.0 | 20.0 | 0.00 | 0.00 | 0.00 | 35 | 1007.2 |
| 20260504203202 | 73 | 122 | 5.0 | 20.0 | 0.00 | 0.00 | 0.00 | 36 | 1007.3 |
| 20260504202702 | 73 | 153 | 3.0 | 13.0 | 0.00 | 0.00 | 0.00 | 37 | 1007.4 |
| 20260504202155 | 73 | 96 | 4.0 | 14.0 | 0.00 | 0.00 | 0.00 | 39 | 1007.3 |
| 20260504201436 | 72 | 148 | 4.0 | 14.0 | 0.00 | 0.00 | 0.00 | 39 | 1007.4 |
| 20260504200937 | 71 | 93 | 4.0 | 12.0 | 0.00 | 0.00 | 0.00 | 38 | 1007.5 |
| 20260504200437 | 72 | 147 | 4.0 | 12.0 | 0.00 | 0.00 | 0.00 | 35 | 1007.5 |
| 20260504195935 | 73 | 223 | 3.0 | 11.0 | 0.00 | 0.00 | 0.00 | 37 | 1007.6 |
| 20260504195436 | 73 | 171 | 3.0 | 16.0 | 0.00 | 0.00 | 0.00 | 36 | 1007.7 |
| 20260504194936 | 73 | 124 | 4.0 | 16.0 | 0.00 | 0.00 | 0.00 | 35 | 1007.7 |
| 20260504194437 | 73 | 113 | 4.0 | 13.0 | 0.00 | 0.00 | 0.00 | 35 | 1007.6 |
| 20260504193935 | 72 | 111 | 5.0 | 13.0 | 0.00 | 0.00 | 0.00 | 38 | 1007.7 |
| 20260504193434 | 71 | 73 | 7.0 | 18.0 | 0.00 | 0.00 | 0.00 | 39 | 1007.7 |
| 20260504192934 | 72 | 76 | 7.0 | 18.0 | 0.00 | 0.00 | 0.00 | 36 | 1007.9 |
| 20260504192435 | 72 | 101 | 5.0 | 15.0 | 0.00 | 0.00 | 0.00 | 33 | 1008.0 |
| 20260504191935 | 72 | 122 | 5.0 | 15.0 | 0.00 | 0.00 | 0.00 | 35 | 1007.9 |
| 20260504191437 | 72 | 96 | 4.0 | 15.0 | 0.00 | 0.00 | 0.00 | 35 | 1008.2 |
| 20260504190933 | 72 | 110 | 3.0 | 11.0 | 0.00 | 0.00 | 0.00 | 36 | 1008.1 |
| 20260504190435 | 72 | 60 | 4.0 | 13.0 | 0.00 | 0.00 | 0.00 | 35 | 1008.1 |
| 20260504185935 | 71 | 171 | 6.0 | 16.0 | 0.00 | 0.00 | 0.00 | 35 | 1008.1 |
| 20260504185433 | 71 | 121 | 5.0 | 16.0 | 0.00 | 0.00 | 0.00 | 33 | 1008.2 |
| 20260504184933 | 72 | 132 | 3.0 | 12.0 | 0.00 | 0.00 | 0.00 | 31 | 1008.3 |
| 20260504184435 | 72 | 159 | 3.0 | 14.0 | 0.00 | 0.00 | 0.00 | 32 | 1008.3 |
| 20260504183936 | 72 | 223 | 3.0 | 14.0 | 0.00 | 0.00 | 0.00 | 33 | 1008.4 |
| 20260504183433 | 71 | 80 | 4.0 | 11.0 | 0.00 | 0.00 | 0.00 | 34 | 1008.4 |
| 20260504183148 | 71 | 178 | 5.0 | 14.0 | 0.00 | 0.00 | 0.00 | 34 | 1008.7 |
| 20260504182428 | 71 | 142 | 5.0 | 14.0 | 0.00 | 0.00 | 0.00 | 33 | 1008.8 |
| 20260504181931 | 71 | 161 | 4.0 | 12.0 | 0.00 | 0.00 | 0.00 | 35 | 1008.8 |
| 20260504181431 | 70 | 121 | 5.0 | 15.0 | 0.00 | 0.00 | 0.00 | 36 | 1008.8 |
| 20260504180928 | 70 | 62 | 8.0 | 20.0 | 0.00 | 0.00 | 0.00 | 36 | 1009.0 |
| 20260504180428 | 70 | 102 | 7.0 | 20.0 | 0.00 | 0.00 | 0.00 | 38 | 1008.9 |
| 20260504175928 | 70 | 55 | 7.0 | 18.0 | 0.00 | 0.00 | 0.00 | 42 | 1009.0 |
| 20260504175432 | 70 | 75 | 5.0 | 15.0 | 0.00 | 0.00 | 0.00 | 36 | 1009.0 |
| 20260504174928 | 70 | 69 | 5.0 | 17.0 | 0.00 | 0.00 | 0.00 | 38 | 1009.0 |
| 20260504174424 | 70 | 155 | 6.0 | 17.0 | 0.00 | 0.00 | 0.00 | 39 | 1009.1 |
| 20260504173925 | 70 | 54 | 4.0 | 16.0 | 0.00 | 0.00 | 0.00 | 39 | 1009.1 |
| 20260504173424 | 69 | 122 | 4.0 | 13.0 | 0.00 | 0.00 | 0.00 | 38 | 1009.1 |
| 20260504172925 | 69 | 182 | 6.0 | 15.0 | 0.00 | 0.00 | 0.00 | 40 | 1009.2 |
| 20260504172423 | 68 | 123 | 6.0 | 15.0 | 0.00 | 0.00 | 0.00 | 41 | 1009.3 |
| 20260504171923 | 69 | 87 | 5.0 | 12.0 | 0.00 | 0.00 | 0.00 | 42 | 1009.4 |
| 20260504171649 | 68 | 84 | 5.0 | 16.0 | 0.00 | 0.00 | 0.00 | 47 | 1009.6 |
| 20260504170920 | 68 | 38 | 6.0 | 16.0 | 0.00 | 0.00 | 0.00 | 40 | 1009.6 |
| 20260504170423 | 67 | 141 | 6.0 | 15.0 | 0.00 | 0.00 | 0.00 | 42 | 1009.7 |
| 20260504160412 | 65 | 58 | 5.0 | 13.0 | 0.00 | 0.00 | 0.00 | 44 | 1010.5 |
| 20260504150905 | 63 | 150 | 4.0 | 15.0 | 0.00 | 0.00 | 0.00 | 46 | 1011.1 |
| 20260504150402 | 62 | 65 | 6.0 | 15.0 | 0.00 | 0.00 | 0.00 | 46 | 1011.1 |
| 20260504140400 | 59 | 92 | 6.0 | 17.0 | 0.00 | 0.00 | 0.00 | 47 | 1011.5 |
| 20260504130350 | 55 | 119 | 4.0 | 12.0 | 0.00 | 0.00 | 0.00 | 52 | 1011.6 |
| 20260504110331 | 36 | 249 | 0.0 | 0.0 | 0.00 | 0.00 | 0.00 | 89 | 1011.9 |
| 20260504100323 | 35 | 161 | 0.0 | 0.0 | 0.00 | 0.00 | 0.00 | 88 | 1011.9 |
| 20260504081801 | 33 | 161 | 0.0 | 1.0 | 0.00 | 0.00 | 0.00 | 87 | 1012.6 |
| 20260504081524 | 33 | 161 | 0.0 | 0.0 | 0.00 | 0.00 | 0.00 | 87 | 1012.6 |
| 20260504080801 | 33 | 161 | 0.0 | 0.0 | 0.00 | 0.00 | 0.00 | 87 | 1012.5 |
| 20260504080258 | 33 | 161 | 0.0 | 0.0 | 0.00 | 0.00 | 0.00 | 87 | 1012.5 |
| 20260504070248 | 34 | 161 | 0.0 | 0.0 | 0.00 | 0.00 | 0.00 | 87 | 1013.0 |
| 20260504050734 | 36 | 161 | 0.0 | 0.0 | 0.00 | 0.00 | 0.00 | 84 | 1013.6 |
| 20260504050234 | 36 | 161 | 0.0 | 0.0 | 0.00 | 0.00 | 0.00 | 84 | 1013.6 |
| 20260504045731 | 36 | 161 | 0.0 | 0.0 | 0.00 | 0.00 | 0.00 | 84 | 1013.6 |
| 20260504045230 | 36 | 161 | 0.0 | 0.0 | 0.00 | 0.00 | 0.00 | 83 | 1013.6 |
| 20260504044731 | 37 | 161 | 0.0 | 0.0 | 0.00 | 0.00 | 0.00 | 83 | 1013.6 |
| 20260504044228 | 37 | 161 | 0.0 | 0.0 | 0.00 | 0.00 | 0.00 | 82 | 1013.6 |
| 20260504043954 | 37 | 161 | 0.0 | 0.0 | 0.00 | 0.00 | 0.00 | 82 | 1013.6 |
| 20260504043228 | 38 | 161 | 0.0 | 0.0 | 0.00 | 0.00 | 0.00 | 81 | 1013.6 |
| 20260504042726 | 38 | 161 | 0.0 | 0.0 | 0.00 | 0.00 | 0.00 | 81 | 1013.5 |
| 20260504042224 | 38 | 161 | 0.0 | 0.0 | 0.00 | 0.00 | 0.00 | 81 | 1013.5 |
| 20260504041724 | 38 | 161 | 0.0 | 0.0 | 0.00 | 0.00 | 0.00 | 81 | 1013.5 |
| 20260504041708 | 38 | 161 | 0.0 | 0.0 | 0.00 | 0.00 | 0.00 | 80 | 1013.5 |
| 20260504040717 | 38 | 161 | 0.0 | 0.0 | 0.00 | 0.00 | 0.00 | 80 | 1013.5 |
| 20260504040216 | 38 | 161 | 0.0 | 0.0 | 0.00 | 0.00 | 0.00 | 79 | 1013.5 |
| 20260504035717 | 38 | 161 | 0.0 | 0.0 | 0.00 | 0.00 | 0.00 | 79 | 1013.5 |
| 20260504035216 | 39 | 161 | 0.0 | 0.0 | 0.00 | 0.00 | 0.00 | 79 | 1013.5 |
| 20260504034715 | 39 | 161 | 0.0 | 0.0 | 0.00 | 0.00 | 0.00 | 78 | 1013.5 |
| 20260504034215 | 39 | 161 | 0.0 | 0.0 | 0.00 | 0.00 | 0.00 | 78 | 1013.4 |
| 20260504033714 | 39 | 161 | 0.0 | 0.0 | 0.00 | 0.00 | 0.00 | 78 | 1013.4 |
| 20260504033216 | 38 | 161 | 0.0 | 0.0 | 0.00 | 0.00 | 0.00 | 79 | 1013.4 |
| 20260504032712 | 38 | 161 | 0.0 | 0.0 | 0.00 | 0.00 | 0.00 | 79 | 1013.4 |
| 20260504032212 | 38 | 161 | 0.0 | 0.0 | 0.00 | 0.00 | 0.00 | 80 | 1013.5 |
| 20260504031712 | 38 | 161 | 0.0 | 0.0 | 0.00 | 0.00 | 0.00 | 79 | 1013.5 |
| 20260504031209 | 39 | 161 | 0.0 | 0.0 | 0.00 | 0.00 | 0.00 | 79 | 1013.5 |
| 20260504030933 | 39 | 161 | 0.0 | 0.0 | 0.00 | 0.00 | 0.00 | 79 | 1013.5 |
| 20260504030431 | 39 | 161 | 0.0 | 0.0 | 0.00 | 0.00 | 0.00 | 78 | 1013.5 |
| 20260504025706 | 39 | 161 | 0.0 | 0.0 | 0.00 | 0.00 | 0.00 | 79 | 1013.5 |
| 20260504025432 | 40 | 161 | 0.0 | 0.0 | 0.00 | 0.00 | 0.00 | 78 | 1013.5 |
| 20260504024703 | 40 | 161 | 0.0 | 0.0 | 0.00 | 0.00 | 0.00 | 78 | 1013.5 |
| 20260504024204 | 40 | 161 | 0.0 | 0.0 | 0.00 | 0.00 | 0.00 | 77 | 1013.5 |
| 20260504023704 | 40 | 161 | 0.0 | 0.0 | 0.00 | 0.00 | 0.00 | 76 | 1013.6 |
| 20260504023204 | 40 | 161 | 0.0 | 0.0 | 0.00 | 0.00 | 0.00 | 76 | 1013.6 |
| 20260504022704 | 41 | 161 | 0.0 | 0.0 | 0.00 | 0.00 | 0.00 | 76 | 1013.6 |
| 20260504022204 | 41 | 161 | 0.0 | 0.0 | 0.00 | 0.00 | 0.00 | 75 | 1013.6 |
| 20260504021706 | 41 | 161 | 0.0 | 0.0 | 0.00 | 0.00 | 0.00 | 74 | 1013.6 |
| 20260504021203 | 41 | 161 | 0.0 | 0.0 | 0.00 | 0.00 | 0.00 | 73 | 1013.5 |
| 20260504020923 | 42 | 161 | 0.0 | 0.0 | 0.00 | 0.00 | 0.00 | 73 | 1013.5 |
| 20260504020200 | 42 | 161 | 0.0 | 0.0 | 0.00 | 0.00 | 0.00 | 72 | 1013.5 |
| 20260504015920 | 42 | 161 | 0.0 | 0.0 | 0.00 | 0.00 | 0.00 | 72 | 1013.4 |
| 20260504015156 | 43 | 161 | 0.0 | 0.0 | 0.00 | 0.00 | 0.00 | 70 | 1013.5 |
| 20260504014657 | 43 | 161 | 0.0 | 0.0 | 0.00 | 0.00 | 0.00 | 69 | 1013.4 |
| 20260504014640 | 44 | 161 | 0.0 | 0.0 | 0.00 | 0.00 | 0.00 | 68 | 1013.4 |
| 20260504013914 | 44 | 161 | 0.0 | 0.0 | 0.00 | 0.00 | 0.00 | 65 | 1013.4 |
| 20260504013414 | 45 | 161 | 0.0 | 0.0 | 0.00 | 0.00 | 0.00 | 67 | 1013.3 |
| 20260504012653 | 45 | 161 | 0.0 | 0.0 | 0.00 | 0.00 | 0.00 | 66 | 1013.4 |
| 20260504012152 | 45 | 161 | 0.0 | 0.0 | 0.00 | 0.00 | 0.00 | 62 | 1013.1 |
| 20260504011916 | 46 | 161 | 0.0 | 0.0 | 0.00 | 0.00 | 0.00 | 60 | 1013.1 |
| 20260504011151 | 46 | 161 | 0.0 | 0.0 | 0.00 | 0.00 | 0.00 | 60 | 1013.1 |
| 20260504010914 | 47 | 161 | 0.0 | 0.0 | 0.00 | 0.00 | 0.00 | 57 | 1013.1 |
| 20260504010147 | 47 | 161 | 0.0 | 0.0 | 0.00 | 0.00 | 0.00 | 57 | 1013.0 |
| 20260504005644 | 48 | 161 | 0.0 | 0.0 | 0.00 | 0.00 | 0.00 | 55 | 1013.1 |
| 20260504005145 | 48 | 161 | 0.0 | 0.0 | 0.00 | 0.00 | 0.00 | 54 | 1013.1 |
| 20260504005129 | 49 | 161 | 0.0 | 0.0 | 0.00 | 0.00 | 0.00 | 53 | 1013.1 |
| 20260504004143 | 49 | 161 | 0.0 | 0.0 | 0.00 | 0.00 | 0.00 | 51 | 1013.0 |
| 20260504003642 | 50 | 161 | 0.0 | 0.0 | 0.00 | 0.00 | 0.00 | 51 | 1013.0 |
| 20260504003139 | 50 | 161 | 0.0 | 0.0 | 0.00 | 0.00 | 0.00 | 50 | 1012.9 |
| 20260504002640 | 51 | 161 | 0.0 | 0.0 | 0.00 | 0.00 | 0.00 | 47 | 1012.9 |
| 20260504002139 | 51 | 161 | 0.0 | 0.0 | 0.00 | 0.00 | 0.00 | 46 | 1012.8 |
| 20260504001636 | 52 | 161 | 0.0 | 0.0 | 0.00 | 0.00 | 0.00 | 45 | 1012.8 |
| 20260504001138 | 52 | 161 | 0.0 | 0.0 | 0.00 | 0.00 | 0.00 | 44 | 1012.8 |
| 20260504000638 | 52 | 161 | 0.0 | 5.0 | 0.00 | 0.00 | 0.00 | 44 | 1012.8 |
| 20260504000627 | 53 | 161 | 0.0 | 5.0 | 0.00 | 0.00 | 0.00 | 44 | 1012.7 |
| 20260503235637 | 53 | 120 | 0.0 | 3.0 | 0.00 | 0.00 | 0.00 | 42 | 1012.8 |
| 20260503235139 | 53 | 129 | 0.0 | 3.0 | 0.00 | 0.00 | 0.00 | 42 | 1012.8 |
| 20260503234639 | 53 | 124 | 0.0 | 5.0 | 0.00 | 0.00 | 0.00 | 42 | 1012.7 |
| 20260503234136 | 54 | 109 | 0.0 | 5.0 | 0.00 | 0.00 | 0.00 | 41 | 1012.7 |
| 20260503233635 | 54 | 100 | 1.0 | 8.0 | 0.00 | 0.01 | 0.00 | 40 | 1012.8 |
| 20260503233133 | 54 | 132 | 1.0 | 8.0 | 0.00 | 0.01 | 0.00 | 40 | 1012.8 |
| 20260503232629 | 54 | 152 | 1.0 | 9.0 | 0.00 | 0.01 | 0.00 | 40 | 1012.8 |
| 20260503232129 | 55 | 227 | 2.0 | 9.0 | 0.00 | 0.01 | 0.00 | 39 | 1012.8 |
| 20260503231632 | 55 | 191 | 2.0 | 13.0 | 0.00 | 0.01 | 0.00 | 39 | 1012.8 |
| 20260503231353 | 55 | 105 | 2.0 | 13.0 | 0.00 | 0.01 | 0.00 | 39 | 1012.8 |
| 20260503230628 | 55 | 131 | 3.0 | 12.0 | 0.00 | 0.01 | 0.00 | 38 | 1012.8 |
| 20260503230127 | 55 | 128 | 2.0 | 10.0 | 0.00 | 0.01 | 0.00 | 38 | 1012.8 |
| 20260503225625 | 55 | 202 | 1.0 | 7.0 | 0.00 | 0.01 | 0.00 | 39 | 1012.8 |
| 20260503225126 | 55 | 323 | 1.0 | 8.0 | 0.00 | 0.01 | 0.00 | 40 | 1012.9 |
| 20260503224626 | 55 | 155 | 2.0 | 11.0 | 0.00 | 0.01 | 0.00 | 41 | 1012.7 |
| 20260503224128 | 55 | 209 | 2.0 | 14.0 | 0.00 | 0.01 | 0.00 | 38 | 1012.6 |
| 20260503223626 | 56 | 74 | 2.0 | 14.0 | 0.00 | 0.01 | 0.00 | 37 | 1012.7 |